DW6743 Weather Reports


time (UTC)temp
F
wind
direction
speed
knots
gust
knots
rain 1hr
in
rain 24hr
in
rain mn
in
humidity
%
barometer
mb
20260507213304 43 91 5.2 8.7 0.00 0.00 0.00 67 1019.6
20260507213057 42 97 4.3 8.7 0.00 0.00 0.00 66 1019.6
20260507211558 43 90 4.3 8.7 0.00 0.00 0.00 67 1019.5
20260507211304 43 96 4.3 7.0 0.00 0.00 0.00 68 1019.5
20260507210304 43 91 5.2 7.8 0.00 0.00 0.00 68 1019.4
20260507210058 43 91 5.2 7.8 0.00 0.00 0.00 67 1019.4
20260507204804 44 90 5.2 7.8 0.00 0.00 0.00 66 1019.3
20260507204600 44 91 4.3 7.8 0.00 0.00 0.00 66 1019.2
20260507204304 45 87 6.1 7.8 0.00 0.00 0.00 66 1019.2
20260507203804 45 84 6.1 7.0 0.00 0.00 0.00 65 1019.1
20260507203304 46 78 6.1 8.7 0.00 0.00 0.00 64 1019.1
20260507203101 45 74 7.0 8.7 0.00 0.00 0.00 63 1019.0
20260507201804 47 75 7.0 7.8 0.00 0.00 0.00 61 1019.1
20260507201610 47 79 7.0 7.8 0.00 0.00 0.00 60 1019.0
20260507201304 48 75 7.0 7.8 0.00 0.00 0.00 60 1019.1
20260507200804 49 71 6.1 7.0 0.00 0.00 0.00 58 1019.1
20260507200304 49 70 5.2 10.4 0.00 0.00 0.00 57 1019.1
20260507200108 49 68 5.2 9.6 0.00 0.00 0.00 56 1018.9
20260507194804 50 62 7.0 8.7 0.00 0.00 0.00 56 1018.9
20260507194557 50 52 6.1 8.7 0.00 0.00 0.00 55 1018.8
20260507194304 51 56 5.2 7.8 0.00 0.00 0.00 55 1018.8
20260507193804 51 50 7.0 8.7 0.00 0.00 0.00 55 1018.8
20260507193304 51 47 5.2 7.8 0.00 0.00 0.00 54 1018.7
20260507193058 51 45 5.2 7.8 0.00 0.00 0.00 54 1018.8
20260507191804 52 41 6.1 8.7 0.00 0.00 0.00 53 1018.5
20260507191558 51 41 5.2 10.4 0.00 0.00 0.00 53 1018.5
20260507190804 52 41 7.8 10.4 0.00 0.00 0.00 52 1018.4
20260507190305 52 41 6.1 10.4 0.00 0.00 0.00 51 1018.4
20260507190057 52 43 7.0 11.3 0.00 0.00 0.00 51 1018.3
20260507184804 53 45 7.8 10.4 0.00 0.00 0.00 51 1018.2
20260507184603 52 50 6.1 11.3 0.00 0.00 0.00 51 1018.1
20260507184304 53 39 7.0 10.4 0.00 0.00 0.00 51 1018.0
20260507183804 54 46 7.8 11.3 0.00 0.00 0.00 49 1018.0
20260507183305 54 45 7.8 12.2 0.00 0.00 0.00 48 1018.0
20260507183055 53 48 5.2 9.6 0.00 0.00 0.00 47 1017.9
20260507181603 54 44 5.2 12.2 0.00 0.00 0.00 45 1017.7
20260507181304 55 49 7.0 12.2 0.00 0.00 0.00 46 1017.8
20260507180804 55 44 7.8 11.3 0.00 0.00 0.00 45 1017.7
20260507180057 55 29 5.2 11.3 0.00 0.00 0.00 43 1017.7
20260507174804 55 46 10.4 13.0 0.00 0.00 0.00 46 1017.5
20260507174606 55 36 8.7 12.2 0.00 0.00 0.00 45 1017.6
20260507174304 55 48 10.4 12.2 0.00 0.00 0.00 44 1017.6
20260507173804 56 42 8.7 12.2 0.00 0.00 0.00 44 1017.6
20260507173304 56 40 8.7 12.2 0.00 0.00 0.00 42 1017.5
20260507173055 55 38 7.8 13.0 0.00 0.00 0.00 42 1017.6
20260507171804 55 35 8.7 12.2 0.00 0.00 0.00 40 1017.5
20260507171602 55 51 8.7 12.2 0.00 0.00 0.00 40 1017.4
20260507171304 55 36 7.0 10.4 0.00 0.00 0.00 41 1017.5
20260507170804 56 32 7.8 12.2 0.00 0.00 0.00 41 1017.4
20260507170304 56 29 9.6 12.2 0.00 0.00 0.00 43 1017.4
20260507170055 55 40 7.8 12.2 0.00 0.00 0.00 43 1017.4
20260507164804 56 44 6.1 12.2 0.00 0.00 0.00 44 1017.4
20260507164557 55 10 7.0 12.2 0.00 0.00 0.00 43 1017.4
20260507164304 56 37 5.2 8.7 0.00 0.00 0.00 43 1017.4
20260507163804 56 28 6.1 10.4 0.00 0.00 0.00 41 1017.4
20260507163304 56 47 7.8 13.0 0.00 0.00 0.00 42 1017.3
20260507163059 55 21 4.3 13.0 0.00 0.00 0.00 41 1017.3
20260507161804 56 24 8.7 12.2 0.00 0.00 0.00 40 1017.4
20260507161558 56 14 7.0 11.3 0.00 0.00 0.00 40 1017.3
20260507161304 56 34 7.8 10.4 0.00 0.00 0.00 41 1017.4
20260507160804 56 25 6.1 11.3 0.00 0.00 0.00 42 1017.4
20260507160304 56 29 8.7 13.0 0.00 0.00 0.00 41 1017.5
20260507160058 55 28 7.0 13.0 0.00 0.00 0.00 41 1017.5
20260507154804 56 28 10.4 13.0 0.00 0.00 0.00 43 1017.4
20260507154604 55 29 9.6 13.0 0.00 0.00 0.00 43 1017.2
20260507154304 55 34 10.4 12.2 0.00 0.00 0.00 43 1017.3
20260507153804 55 21 10.4 13.0 0.00 0.00 0.00 43 1017.5
20260507153304 56 14 12.2 15.6 0.00 0.00 0.00 45 1017.4
20260507153102 55 14 9.6 15.6 0.00 0.00 0.00 44 1017.3
20260507151557 55 26 9.6 14.8 0.00 0.00 0.00 47 1017.2
20260507151304 56 20 7.8 13.0 0.00 0.00 0.00 46 1017.2
20260507150805 56 19 10.4 14.8 0.00 0.00 0.00 48 1017.2
20260507150304 56 19 11.3 13.9 0.00 0.00 0.00 47 1017.3
20260507150059 55 23 10.4 13.9 0.00 0.00 0.00 46 1017.2
20260507144556 55 34 8.7 13.9 0.00 0.00 0.00 45 1017.1
20260507144304 56 4 7.8 12.2 0.00 0.00 0.00 43 1017.3
20260507143804 56 19 8.7 13.0 0.00 0.00 0.00 45 1017.2
20260507143058 55 23 10.4 14.8 0.00 0.00 0.00 50 1017.3
20260507141804 56 10 8.7 13.0 0.00 0.00 0.00 50 1017.4
20260507141557 55 12 7.0 14.8 0.00 0.00 0.00 50 1017.4
20260507141304 55 22 10.4 13.9 0.00 0.00 0.00 51 1017.4
20260507140304 55 19 11.3 13.9 0.00 0.00 0.00 53 1017.3
20260507140104 55 18 9.6 13.0 0.00 0.00 0.00 53 1017.3
20260507134804 55 3 10.4 13.9 0.00 0.00 0.00 55 1017.3
20260507134643 54 6 9.6 13.9 0.00 0.00 0.00 56 1017.3
20260507134304 54 17 11.3 13.9 0.00 0.00 0.00 54 1017.4
20260507133804 54 23 7.8 12.2 0.00 0.00 0.00 53 1017.3
20260507133304 55 25 11.3 15.6 0.00 0.00 0.00 52 1017.4
20260507133106 54 360 7.8 15.6 0.00 0.00 0.00 50 1017.3
20260507131804 55 4 10.4 13.9 0.00 0.00 0.00 50 1017.3
20260507131603 54 25 7.0 15.6 0.00 0.00 0.00 49 1017.2
20260507131304 55 26 9.6 15.6 0.00 0.00 0.00 55 1017.3
20260507130304 55 13 8.7 14.8 0.00 0.00 0.00 53 1017.3
20260507130109 54 25 8.7 14.8 0.00 0.00 0.00 53 1017.2
20260507124557 55 29 7.8 13.9 0.00 0.00 0.00 55 1017.1
20260507124304 55 32 9.6 13.9 0.00 0.00 0.00 56 1017.1
20260507123804 54 12 11.3 13.9 0.00 0.00 0.00 54 1017.1
20260507123305 54 20 8.7 14.8 0.00 0.00 0.00 54 1017.1
20260507123059 53 23 10.4 14.8 0.00 0.00 0.00 54 1017.2
20260507121805 54 14 8.7 13.0 0.00 0.00 0.00 55 1017.1
20260507121607 53 17 9.6 13.9 0.00 0.00 0.00 55 1017.0
20260507121304 54 7 10.4 13.9 0.00 0.00 0.00 57 1017.0
20260507120806 54 15 8.7 13.0 0.00 0.00 0.00 58 1017.0
20260507120305 54 8 9.6 13.9 0.00 0.00 0.00 56 1017.0
20260507120105 53 8 8.7 13.9 0.00 0.00 0.00 57 1016.8
20260507114804 54 24 8.7 13.0 0.00 0.00 0.00 63 1016.9
20260507114613 53 21 9.6 13.9 0.00 0.00 0.00 62 1016.9
20260507114304 53 12 8.7 13.9 0.00 0.00 0.00 63 1017.0
20260507113804 54 14 7.8 12.2 0.00 0.00 0.00 61 1017.0
20260507113304 54 31 8.7 13.0 0.00 0.00 0.00 63 1017.0
20260507113101 53 17 7.0 13.9 0.00 0.00 0.00 63 1016.9
20260507111804 54 9 8.7 13.0 0.00 0.00 0.00 64 1017.0
20260507111604 54 31 8.7 13.0 0.00 0.00 0.00 64 1016.9
20260507111304 54 7 8.7 13.0 0.00 0.00 0.00 64 1016.9
20260507110804 54 22 7.8 13.9 0.00 0.00 0.00 65 1017.1
20260507110304 54 14 7.8 12.2 0.00 0.00 0.00 65 1017.1
20260507110109 53 328 6.1 12.2 0.00 0.00 0.00 65 1016.9
20260507104804 53 349 7.0 11.3 0.00 0.00 0.00 66 1016.9
20260507104557 53 11 7.8 11.3 0.00 0.00 0.00 65 1016.8
20260507104304 53 357 6.1 10.4 0.00 0.00 0.00 65 1016.9
20260507103805 53 11 7.0 10.4 0.00 0.00 0.00 65 1016.8
20260507103305 53 320 7.8 11.3 0.00 0.00 0.00 65 1016.9
20260507103057 52 323 4.3 10.4 0.00 0.00 0.00 64 1016.8
20260507101836 53 4 4.3 8.7 0.00 0.00 0.00 65 1016.7
20260507101605 52 350 5.2 10.4 0.00 0.00 0.00 64 1016.5
20260507101304 53 354 6.1 10.4 0.00 0.00 0.00 65 1016.6
20260507100804 53 333 7.0 10.4 0.00 0.00 0.00 65 1016.6
20260507100305 53 351 5.2 10.4 0.00 0.00 0.00 67 1016.6
20260507100058 52 1 4.3 9.6 0.00 0.00 0.00 68 1016.6
20260507094804 52 313 6.1 10.4 0.00 0.00 0.00 67 1016.5
20260507094558 52 5 7.8 10.4 0.00 0.00 0.00 67 1016.4
20260507094304 52 340 6.1 10.4 0.00 0.00 0.00 67 1016.4
20260507093804 52 337 6.1 10.4 0.00 0.00 0.00 67 1016.4
20260507093304 52 338 6.1 10.4 0.00 0.00 0.00 67 1016.3
20260507093059 52 340 8.7 11.3 0.00 0.00 0.00 66 1016.2
20260507091804 52 357 4.3 12.2 0.00 0.00 0.00 68 1016.3
20260507091600 51 350 7.0 11.3 0.00 0.00 0.00 67 1016.1
20260507091304 52 356 5.2 10.4 0.00 0.00 0.00 68 1016.2
20260507090804 52 30 6.1 11.3 0.00 0.00 0.00 68 1016.1
20260507090058 51 25 7.0 12.2 0.00 0.00 0.00 66 1016.1
20260507084804 52 8 7.0 10.4 0.00 0.00 0.00 66 1016.1
20260507084559 51 354 4.3 9.6 0.00 0.00 0.00 65 1016.1
20260507084304 52 349 6.1 8.7 0.00 0.00 0.00 65 1016.1
20260507083804 52 356 5.2 10.4 0.00 0.00 0.00 64 1016.0
20260507083304 51 28 8.7 12.2 0.00 0.00 0.00 66 1016.1
20260507083056 51 12 7.0 9.6 0.00 0.00 0.00 66 1016.1
20260507081804 50 32 3.5 8.7 0.00 0.00 0.00 65 1015.9
20260507081603 50 33 3.5 9.6 0.00 0.00 0.00 64 1016.0
20260507081305 51 351 4.3 8.7 0.00 0.00 0.00 66 1016.0
20260507080804 51 337 5.2 10.4 0.00 0.00 0.00 66 1015.9
20260507080304 51 5 5.2 8.7 0.00 0.00 0.00 66 1016.0
20260507080104 50 7 3.5 8.7 0.00 0.00 0.00 66 1015.8
20260507074804 50 11 4.3 7.8 0.00 0.00 0.00 67 1015.8
20260507074609 50 24 4.3 7.8 0.00 0.00 0.00 67 1015.7
20260507074304 50 12 3.5 7.8 0.00 0.00 0.00 67 1015.9
20260507073806 50 0 3.5 7.0 0.00 0.00 0.00 68 1015.8
20260507073057 49 34 5.2 7.8 0.00 0.00 0.00 68 1015.7
20260507071805 49 0 3.5 7.0 0.00 0.00 0.00 71 1015.7
20260507071559 49 13 4.3 7.8 0.00 0.00 0.00 71 1015.6
20260507071304 49 347 2.6 7.0 0.00 0.00 0.00 71 1015.6
20260507070804 49 0 4.3 7.0 0.00 0.00 0.00 71 1015.6
20260507070305 49 333 3.5 7.0 0.00 0.00 0.00 72 1015.5
20260507070058 49 324 2.6 7.0 0.00 0.00 0.00 72 1015.4
20260507064804 48 25 4.3 6.1 0.00 0.00 0.00 73 1015.4
20260507064557 48 2 3.5 5.2 0.00 0.00 0.00 73 1015.4
20260507064304 48 16 1.7 5.2 0.00 0.00 0.00 74 1015.4
20260507063304 48 319 2.6 5.2 0.00 0.00 0.00 75 1015.4
20260507063100 47 324 1.7 5.2 0.00 0.00 0.00 74 1015.3
20260507061804 48 18 2.6 4.3 0.00 0.00 0.00 74 1015.2
20260507061601 47 340 0.9 2.6 0.00 0.00 0.00 74 1015.3
20260507061304 48 340 1.7 2.6 0.00 0.00 0.00 75 1015.3
20260507060805 48 65 0.9 1.7 0.00 0.00 0.00 76 1015.2
20260507060304 48 65 0.0 1.7 0.00 0.00 0.00 78 1015.2
20260507054804 45 65 0.9 0.9 0.00 0.00 0.00 82 1015.1
20260507054639 45 0 0.0 1.7 0.00 0.00 0.00 82 1015.1
20260507054304 44 65 0.0 0.9 0.00 0.00 0.00 82 1015.0
20260507053307 43 65 0.0 1.7 0.00 0.00 0.00 83 1014.9
20260507053058 42 0 0.0 0.9 0.00 0.00 0.00 83 1014.7
20260507051804 40 65 0.0 0.9 0.00 0.00 0.00 84 1014.7
20260507051603 39 0 0.0 1.7 0.00 0.00 0.00 84 1014.7
20260507051304 39 65 0.0 0.9 0.00 0.00 0.00 84 1014.7
20260507050804 38 65 0.0 1.7 0.00 0.00 0.00 84 1014.7
20260507050304 37 65 0.9 1.7 0.00 0.00 0.00 84 1014.7
20260507050059 37 65 0.0 1.7 0.00 0.00 0.00 84 1014.5
20260507044804 36 65 0.0 0.0 0.00 0.00 0.00 84 1014.4
20260507044603 36 0 0.0 1.7 0.00 0.00 0.00 84 1014.4
20260507044304 36 65 0.0 0.9 0.00 0.00 0.00 84 1014.5
20260507043804 35 65 0.9 1.7 0.00 0.00 0.00 84 1014.5
20260507043304 35 65 0.0 0.9 0.00 0.00 0.00 84 1014.5
20260507043103 34 0 0.0 0.9 0.00 0.00 0.00 83 1014.4
20260507041602 34 0 0.0 1.7 0.00 0.00 0.00 84 1014.3
20260507041304 34 65 0.0 0.0 0.00 0.00 0.00 84 1014.4
20260507040804 34 65 0.9 1.7 0.00 0.00 0.00 84 1014.4
20260507040304 33 65 1.7 2.6 0.00 0.00 0.00 84 1014.3
20260507040058 33 65 1.7 3.5 0.00 0.00 0.00 83 1014.3
20260507034600 32 65 0.9 1.7 0.00 0.00 0.00 83 1014.1
20260507034304 33 65 0.9 1.7 0.00 0.00 0.00 83 1014.2
20260507033804 33 65 0.0 0.0 0.00 0.00 0.00 84 1014.1
20260507033304 33 65 0.0 2.6 0.00 0.00 0.00 83 1014.1
20260507033105 33 0 0.0 2.6 0.00 0.00 0.00 83 1014.1
20260507031804 33 65 1.7 1.7 0.00 0.00 0.00 83 1014.1
20260507031609 32 65 0.0 2.6 0.00 0.00 0.00 83 1014.1
20260507031304 32 65 0.9 1.7 0.00 0.00 0.00 83 1014.1
20260507030100 32 65 0.0 1.7 0.00 0.00 0.00 82 1014.1
20260507024604 32 0 0.0 1.7 0.00 0.00 0.00 82 1014.0
20260507024305 33 65 0.0 0.9 0.00 0.00 0.00 83 1014.0
20260507023804 33 65 0.9 1.7 0.00 0.00 0.00 83 1014.0
20260507023304 33 65 0.9 1.7 0.00 0.00 0.00 82 1013.8
20260507023107 33 65 0.9 1.7 0.00 0.00 0.00 82 1013.8
20260507021602 33 0 0.0 0.9 0.00 0.00 0.00 82 1013.7
20260507021304 34 65 0.0 0.9 0.00 0.00 0.00 82 1013.8
20260507020304 34 65 0.0 0.0 0.00 0.00 0.00 82 1013.8
20260507014804 34 65 0.0 0.0 0.00 0.00 0.00 82 1013.8
20260507014605 34 0 0.0 2.6 0.00 0.00 0.00 81 1013.9
20260507014304 34 65 0.0 2.6 0.00 0.00 0.00 82 1013.8
20260507013804 34 65 0.9 2.6 0.00 0.00 0.00 82 1013.8
20260507013056 34 65 2.6 3.5 0.00 0.00 0.00 81 1013.8
20260507011804 34 65 2.6 2.6 0.00 0.00 0.00 81 1013.7
20260507011556 34 65 2.6 3.5 0.00 0.00 0.00 81 1013.7
20260507010804 35 65 1.7 2.6 0.00 0.00 0.00 81 1013.8
20260507010305 35 65 2.6 4.3 0.00 0.00 0.00 81 1013.7
20260507004804 36 65 1.7 2.6 0.00 0.00 0.00 81 1013.6
20260507004558 35 65 1.7 3.5 0.00 0.00 0.00 80 1013.5
20260507004304 35 65 1.7 2.6 0.00 0.00 0.00 81 1013.6
20260507003305 35 65 2.6 4.3 0.00 0.00 0.00 80 1013.5
20260507003055 35 65 2.6 4.3 0.00 0.00 0.00 79 1013.4
20260507001605 35 65 4.3 7.0 0.00 0.00 0.00 79 1013.4
20260507000306 36 66 5.2 7.0 0.00 0.00 0.00 78 1013.3
20260507000057 36 64 5.2 7.0 0.00 0.00 0.00 78 1013.3
20260506234600 36 56 4.3 7.0 0.00 0.00 0.00 77 1013.3
20260506234304 37 56 4.3 7.0 0.00 0.00 0.00 78 1013.3
20260506233304 37 54 4.3 5.2 0.00 0.00 0.00 77 1013.4
20260506233109 37 54 3.5 5.2 0.00 0.00 0.00 77 1013.4
20260506231804 37 50 4.3 5.2 0.00 0.00 0.00 77 1013.3
20260506231559 37 50 3.5 6.1 0.00 0.00 0.00 77 1013.3
20260506231304 37 55 4.3 5.2 0.00 0.00 0.00 77 1013.3
20260506230804 37 53 4.3 6.1 0.00 0.00 0.00 77 1013.2
20260506230304 37 57 4.3 7.0 0.00 0.00 0.00 76 1013.2
20260506230058 37 57 3.5 7.0 0.00 0.00 0.00 76 1013.0
20260506224804 38 50 4.3 5.2 0.00 0.00 0.00 76 1013.0
20260506224556 38 48 4.3 7.0 0.00 0.00 0.00 76 1013.1
20260506224304 38 46 5.2 7.0 0.00 0.00 0.00 77 1013.0
20260506223804 38 51 5.2 7.0 0.00 0.00 0.00 76 1013.0
20260506223102 38 40 3.5 7.8 0.00 0.00 0.00 75 1013.0
20260506221804 38 44 5.2 7.8 0.00 0.00 0.00 76 1012.9
20260506221559 38 44 5.2 7.8 0.00 0.00 0.00 75 1012.8
20260506221304 39 45 5.2 7.0 0.00 0.00 0.00 75 1012.8
20260506220827 39 44 4.3 6.1 0.00 0.00 0.00 75 1012.8
20260506220304 39 44 4.3 7.0 0.00 0.00 0.00 75 1012.7
20260506220059 38 44 3.5 7.0 0.00 0.00 0.00 74 1012.7
20260506214804 39 32 5.2 7.0 0.00 0.00 0.00 74 1012.4
20260506214557 39 29 5.2 7.0 0.00 0.00 0.00 74 1012.3
20260506214304 40 26 5.2 7.0 0.00 0.00 0.00 74 1012.4
20260506213804 40 27 5.2 5.2 0.00 0.00 0.00 74 1012.4